GFSFLT2_500_temp_351.txt.gz
Temp
-16 -16 -16 -16 -16 -16 -16 -16 -16 -16 -16 -16 -16 -16 -17 -17 -17 -17 -17 -17 -17 -17 -17 -17 -17 -17 -18
-17 -17 -17 -17 -16 -16 -16 -16 -16 -16 -17 -17 -17 -17 -17 -17 -17 -17 -17 -17 -18 -18 -18 -18 -18 -18 -18
-17 -17 -17 -17 -17 -17 -17 -17 -17 -17 -17 -18 -18 -18 -18 -18 -18 -18 -19 -19 -18 -18 -19 -19 -19 -19 -19
-18 -18 -18 -18 -18 -18 -18 -18 -18 -18 -19 -19 -19 -19 -19 -19 -19 -19 -20 -20 -20 -20 -20 -20 -20 -20 -20
-18 -18 -18 -19 -19 -19 -19 -19 -19 -19 -20 -20 -20 -20 -20 -20 -20 -20 -20 -20 -20 -21 -21 -21 -21 -21 -21
-20 -20 -19 -20 -20 -20 -19 -20 -20 -20 -21 -21 -21 -21 -21 -21 -21 -21 -21 -21 -21 -21 -21 -21 -21 -21 -21
-21 -20 -20 -20 -21 -21 -21 -21 -21 -21 -21 -22 -21 -21 -22 -22 -22 -22 -22 -22 -22 -22 -22 -22 -22 -22 -22
-21 -21 -21 -21 -21 -21 -22 -22 -22 -22 -22 -22 -23 -23 -23 -23 -22 -23 -23 -23 -23 -23 -23 -23 -23 -23 -23
-22 -22 -22 -22 -22 -23 -23 -23 -23 -23 -23 -23 -23 -23 -23 -24 -24 -24 -24 -24 -24 -25 -25 -25 -25 -25 -25
-22 -22 -23 -23 -23 -23 -23 -23 -23 -23 -24 -24 -24 -24 -24 -25 -26 -26 -27 -27 -27 -27 -27 -27 -27 -27 -27
-23 -24 -24 -24 -24 -23 -23 -24 -24 -25 -25 -26 -26 -26 -26 -27 -28 -28 -28 -28 -28 -28 -28 -28 -28 -28 -28
-24 -24 -24 -24 -25 -25 -26 -26 -26 -27 -27 -27 -27 -28 -28 -28 -28 -28 -28 -28 -28 -28 -28 -28 -28 -28 -28
-25 -26 -26 -27 -27 -27 -27 -27 -28 -28 -28 -28 -28 -28 -28 -28 -28 -28 -28 -29 -29 -29 -29 -29 -29 -29 -29
-27 -27 -27 -27 -28 -28 -28 -28 -29 -29 -29 -29 -29 -28 -28 -29 -28 -29 -29 -29 -30 -30 -30 -30 -30 -30 -30
-28 -28 -28 -28 -28 -29 -29 -29 -29 -29 -30 -29 -29 -29 -29 -29 -30 -30 -30 -30 -30 -30 -30 -30 -31 -31 -31
-28 -29 -29 -29 -29 -29 -29 -29 -30 -30 -30 -30 -31 -30 -30 -30 -30 -31 -31 -31 -31 -31 -31 -31 -32 -32 -32
-29 -29 -29 -29 -29 -30 -30 -30 -30 -30 -31 -31 -31 -31 -31 -31 -32 -32 -32 -32 -32 -32 -32 -32 -32 -32 -33

GFSFLT2_500_temp_354.txt.gz
Temp
-16 -16 -16 -16 -16 -16 -16 -16 -16 -16 -16 -16 -16 -16 -16 -16 -16 -16 -17 -17 -17 -17 -17 -18 -18 -18 -18
-16 -17 -17 -17 -17 -17 -17 -16 -16 -16 -17 -17 -17 -17 -17 -17 -17 -17 -18 -18 -18 -18 -18 -19 -19 -19 -19
-17 -17 -17 -17 -17 -17 -17 -17 -17 -17 -17 -17 -17 -17 -18 -18 -18 -18 -19 -19 -19 -19 -19 -19 -20 -20 -20
-18 -18 -18 -17 -17 -17 -18 -18 -18 -18 -18 -18 -18 -19 -19 -19 -19 -19 -19 -20 -20 -20 -20 -20 -20 -20 -21
-18 -18 -18 -18 -18 -18 -19 -19 -19 -19 -19 -19 -19 -19 -20 -20 -20 -20 -20 -21 -21 -21 -21 -21 -21 -22 -21
-19 -19 -19 -19 -19 -20 -20 -20 -20 -20 -20 -20 -20 -20 -21 -21 -21 -21 -21 -22 -22 -22 -22 -22 -22 -22 -22
-20 -20 -20 -20 -20 -20 -21 -21 -21 -21 -21 -21 -21 -21 -21 -21 -22 -22 -22 -23 -23 -23 -23 -23 -23 -23 -23
-21 -21 -21 -21 -21 -21 -21 -21 -21 -21 -21 -22 -22 -22 -22 -22 -23 -23 -23 -23 -23 -24 -24 -24 -24 -24 -24
-21 -21 -21 -21 -22 -22 -22 -22 -22 -22 -23 -23 -23 -23 -24 -24 -24 -24 -24 -25 -25 -25 -26 -26 -26 -27 -27
-21 -22 -22 -22 -23 -23 -23 -23 -23 -24 -24 -23 -24 -23 -24 -25 -26 -26 -26 -26 -27 -27 -27 -27 -28 -28 -28
-22 -22 -23 -23 -23 -23 -23 -24 -24 -24 -24 -25 -26 -26 -26 -26 -27 -28 -28 -28 -28 -28 -28 -28 -28 -28 -28
-23 -23 -23 -24 -24 -24 -25 -24 -25 -26 -26 -26 -26 -27 -27 -27 -28 -28 -29 -29 -29 -29 -28 -28 -29 -29 -29
-24 -25 -25 -25 -25 -25 -26 -26 -27 -27 -27 -27 -27 -28 -28 -28 -28 -29 -28 -29 -29 -29 -29 -29 -30 -30 -30
-25 -25 -26 -26 -26 -27 -27 -27 -27 -28 -28 -28 -28 -28 -28 -28 -28 -29 -29 -29 -30 -30 -30 -30 -31 -31 -31
-26 -26 -27 -27 -27 -28 -28 -28 -28 -29 -29 -28 -28 -28 -28 -29 -29 -30 -30 -30 -30 -30 -31 -31 -31 -32 -32
-27 -28 -28 -28 -28 -28 -28 -29 -29 -29 -29 -30 -30 -29 -29 -30 -30 -30 -31 -31 -31 -31 -31 -31 -31 -32 -32
-28 -28 -28 -29 -29 -29 -29 -29 -29 -29 -30 -30 -30 -30 -30 -30 -31 -31 -31 -31 -31 -32 -32 -32 -32 -32 -33

GFSFLT2_500_temp_357.txt.gz
Temp
-15 -15 -14 -15 -15 -15 -15 -15 -16 -16 -16 -16 -16 -16 -16 -16 -16 -16 -16 -17 -17 -17 -17 -17 -17 -18 -18
-15 -15 -15 -16 -15 -16 -16 -16 -17 -17 -16 -16 -16 -16 -17 -17 -17 -17 -17 -17 -17 -17 -18 -18 -18 -18 -18
-16 -16 -16 -16 -16 -17 -17 -17 -17 -17 -17 -17 -17 -17 -18 -18 -18 -18 -18 -18 -18 -18 -18 -18 -19 -19 -19
-17 -17 -17 -17 -17 -18 -17 -18 -18 -18 -18 -18 -18 -18 -19 -19 -19 -19 -19 -19 -19 -19 -20 -20 -20 -20 -21
-17 -17 -18 -18 -18 -18 -18 -19 -19 -19 -19 -19 -19 -19 -19 -19 -20 -20 -20 -20 -20 -20 -21 -21 -21 -21 -22
-17 -18 -18 -18 -19 -19 -19 -19 -19 -20 -20 -20 -20 -20 -20 -20 -20 -21 -21 -21 -21 -21 -21 -21 -22 -23 -23
-19 -19 -19 -20 -20 -20 -20 -20 -20 -20 -20 -20 -20 -21 -21 -21 -21 -21 -21 -21 -22 -22 -23 -23 -23 -24 -24
-20 -20 -20 -20 -20 -21 -21 -21 -21 -21 -21 -21 -21 -22 -21 -21 -22 -22 -22 -23 -23 -23 -24 -24 -25 -25 -26
-21 -21 -21 -21 -21 -21 -21 -22 -22 -22 -22 -22 -22 -22 -23 -23 -23 -23 -24 -24 -25 -25 -26 -26 -26 -26 -27
-21 -21 -21 -21 -22 -22 -22 -22 -22 -22 -22 -22 -22 -23 -23 -24 -25 -25 -25 -25 -26 -26 -26 -27 -27 -27 -28
-21 -22 -22 -22 -22 -23 -22 -22 -23 -23 -22 -23 -23 -24 -24 -25 -26 -26 -26 -26 -27 -27 -27 -27 -28 -28 -28
-22 -23 -23 -23 -23 -23 -23 -23 -23 -23 -24 -24 -25 -25 -26 -26 -27 -27 -28 -28 -28 -28 -28 -28 -29 -29 -29
-23 -24 -24 -24 -23 -23 -24 -24 -25 -25 -25 -25 -26 -26 -27 -27 -27 -28 -28 -29 -29 -29 -29 -29 -30 -30 -30
-24 -24 -24 -24 -25 -25 -25 -25 -26 -26 -26 -27 -27 -27 -27 -27 -27 -28 -28 -28 -29 -29 -30 -30 -30 -30 -31
-25 -25 -26 -26 -26 -26 -26 -26 -27 -28 -28 -27 -27 -28 -28 -28 -28 -29 -29 -29 -29 -30 -30 -30 -31 -31 -31
-26 -26 -26 -26 -26 -26 -27 -28 -28 -28 -28 -29 -29 -28 -28 -28 -29 -29 -30 -30 -30 -30 -30 -30 -31 -31 -31
-27 -27 -27 -27 -27 -28 -28 -28 -29 -29 -29 -29 -29 -29 -29 -29 -30 -30 -30 -30 -30 -31 -31 -31 -31 -31 -32

GFSFLT2_500_temp_360.txt.gz
Temp
-15 -14 -15 -15 -15 -15 -15 -15 -15 -15 -15 -15 -15 -16 -16 -16 -16 -16 -16 -16 -17 -17 -17 -17 -17 -17 -17
-15 -15 -15 -15 -15 -15 -15 -15 -15 -16 -16 -16 -16 -16 -16 -16 -17 -17 -17 -17 -17 -17 -17 -18 -18 -18 -18
-15 -15 -16 -15 -15 -16 -16 -16 -16 -16 -16 -17 -17 -17 -17 -17 -17 -18 -18 -18 -18 -18 -19 -19 -19 -19 -20
-16 -16 -16 -16 -17 -16 -16 -16 -17 -17 -17 -17 -17 -18 -18 -18 -18 -19 -19 -19 -19 -19 -19 -20 -20 -20 -21
-17 -17 -17 -17 -17 -17 -17 -17 -17 -17 -18 -18 -18 -18 -19 -19 -19 -19 -20 -20 -20 -20 -20 -20 -20 -21 -21
-17 -18 -18 -17 -18 -18 -18 -18 -18 -18 -19 -19 -19 -19 -20 -20 -20 -20 -21 -21 -21 -21 -21 -21 -21 -21 -21
-18 -18 -18 -18 -18 -19 -18 -19 -19 -20 -20 -20 -20 -20 -20 -21 -21 -21 -21 -21 -21 -21 -21 -22 -22 -23 -23
-18 -19 -19 -19 -19 -19 -20 -20 -20 -20 -20 -21 -21 -21 -21 -22 -22 -22 -22 -22 -22 -22 -22 -23 -23 -24 -25
-18 -19 -19 -19 -19 -20 -21 -21 -21 -21 -21 -22 -22 -22 -22 -22 -22 -22 -22 -22 -22 -23 -23 -24 -25 -25 -26
-19 -19 -19 -19 -20 -21 -21 -21 -21 -22 -22 -22 -22 -22 -22 -22 -22 -22 -22 -23 -24 -24 -25 -25 -26 -26 -26
-19 -20 -20 -21 -21 -21 -21 -22 -22 -22 -23 -22 -22 -22 -22 -22 -23 -23 -24 -24 -25 -26 -26 -26 -26 -26 -27
-21 -21 -21 -22 -22 -22 -22 -22 -23 -23 -23 -23 -23 -22 -23 -23 -24 -25 -26 -26 -27 -27 -27 -27 -27 -27 -27
-21 -22 -22 -22 -22 -23 -23 -23 -24 -24 -23 -23 -23 -24 -24 -25 -25 -27 -27 -28 -27 -28 -28 -28 -28 -28 -29
-22 -22 -23 -23 -23 -24 -24 -24 -24 -24 -25 -25 -25 -25 -26 -26 -27 -27 -28 -28 -28 -28 -28 -29 -29 -29 -30
-23 -23 -24 -24 -24 -25 -25 -25 -25 -25 -26 -26 -26 -26 -27 -27 -28 -28 -28 -29 -29 -29 -29 -29 -30 -30 -30
-24 -25 -25 -25 -25 -25 -26 -26 -26 -26 -27 -27 -27 -27 -27 -28 -28 -29 -29 -29 -29 -29 -29 -29 -30 -31 -31
-25 -25 -26 -26 -26 -26 -26 -27 -27 -27 -28 -28 -29 -29 -28 -28 -29 -30 -30 -30 -29 -30 -30 -30 -30 -31 -31

GFSFLT2_500_temp_363.txt.gz
Temp
-15 -15 -15 -15 -15 -15 -15 -15 -15 -15 -15 -15 -15 -15 -15 -15 -15 -15 -16 -16 -16 -16 -16 -16 -16 -17 -17
-16 -15 -15 -16 -15 -15 -15 -15 -15 -15 -15 -15 -15 -15 -16 -16 -16 -16 -16 -16 -16 -16 -17 -17 -18 -18 -18
-16 -15 -16 -15 -15 -15 -16 -16 -16 -16 -16 -16 -16 -16 -16 -16 -16 -16 -17 -18 -17 -18 -18 -19 -19 -19 -19
-16 -16 -16 -16 -16 -16 -16 -16 -16 -16 -16 -17 -17 -17 -17 -17 -17 -18 -18 -18 -18 -19 -20 -20 -20 -20 -20
-16 -16 -16 -16 -17 -17 -17 -17 -16 -17 -17 -17 -17 -17 -18 -18 -18 -19 -19 -19 -19 -20 -20 -20 -21 -21 -21
-17 -17 -17 -17 -17 -17 -17 -17 -17 -17 -17 -18 -18 -18 -18 -19 -19 -20 -20 -20 -20 -21 -21 -21 -21 -21 -21
-17 -17 -17 -17 -18 -18 -17 -18 -18 -18 -19 -19 -19 -19 -20 -20 -20 -20 -21 -21 -21 -22 -21 -21 -21 -21 -21
-17 -17 -17 -17 -18 -18 -18 -18 -19 -19 -19 -19 -19 -19 -20 -20 -21 -21 -22 -22 -22 -22 -22 -22 -21 -21 -22
-18 -18 -18 -18 -18 -18 -18 -18 -18 -19 -19 -19 -20 -20 -20 -21 -21 -22 -22 -22 -22 -22 -22 -22 -22 -22 -23
-19 -18 -19 -19 -19 -19 -19 -19 -19 -19 -20 -20 -20 -21 -21 -22 -22 -22 -22 -22 -22 -22 -22 -22 -23 -23 -24
-19 -19 -19 -19 -19 -19 -19 -20 -20 -20 -21 -21 -21 -22 -22 -22 -23 -23 -23 -23 -22 -22 -23 -23 -24 -25 -25
-19 -19 -20 -20 -20 -20 -20 -21 -21 -21 -21 -22 -22 -22 -23 -23 -24 -23 -23 -23 -23 -24 -24 -25 -26 -26 -27
-20 -20 -20 -20 -20 -21 -21 -22 -22 -22 -22 -23 -23 -23 -24 -24 -24 -24 -24 -25 -25 -25 -26 -27 -27 -28 -28
-21 -21 -21 -21 -21 -22 -22 -22 -23 -23 -23 -23 -24 -24 -24 -24 -24 -25 -25 -26 -26 -27 -27 -28 -28 -29 -29
-22 -22 -22 -22 -22 -23 -23 -23 -24 -24 -24 -24 -24 -24 -24 -25 -25 -26 -26 -27 -27 -28 -29 -29 -29 -29 -29
-23 -23 -23 -23 -24 -24 -24 -24 -25 -25 -25 -25 -25 -25 -25 -25 -26 -27 -28 -28 -29 -29 -29 -29 -29 -30 -30
-24 -24 -25 -25 -24 -25 -25 -25 -25 -25 -26 -26 -26 -26 -26 -26 -27 -28 -29 -29 -29 -29 -29 -29 -29 -30 -30

GFSFLT2_500_temp_369.txt.gz
Temp
-14 -14 -14 -15 -14 -14 -15 -15 -15 -15 -15 -14 -15 -15 -15 -15 -15 -15 -16 -16 -16 -16 -16 -16 -16 -17 -17
-15 -15 -14 -14 -14 -14 -14 -15 -15 -14 -14 -15 -15 -15 -15 -15 -16 -16 -16 -16 -16 -16 -16 -17 -17 -17 -17
-15 -15 -15 -15 -15 -15 -15 -15 -15 -14 -14 -15 -15 -15 -16 -16 -16 -16 -16 -16 -17 -17 -17 -18 -18 -18 -18
-15 -15 -15 -15 -15 -15 -15 -15 -15 -15 -15 -16 -16 -16 -16 -16 -16 -17 -17 -17 -18 -18 -18 -18 -18 -18 -19
-15 -15 -15 -15 -15 -15 -15 -16 -15 -15 -16 -15 -15 -16 -16 -17 -17 -17 -18 -18 -18 -18 -18 -19 -19 -19 -20
-16 -16 -15 -15 -15 -15 -15 -16 -16 -16 -16 -16 -17 -17 -17 -17 -18 -18 -18 -18 -19 -19 -19 -19 -20 -20 -20
-16 -16 -16 -16 -16 -16 -16 -16 -17 -16 -17 -17 -17 -17 -17 -18 -18 -18 -18 -18 -19 -19 -19 -20 -20 -20 -21
-17 -17 -17 -17 -16 -16 -16 -17 -17 -17 -17 -17 -18 -18 -18 -18 -18 -18 -19 -19 -19 -20 -20 -20 -21 -22 -22
-18 -18 -18 -18 -17 -17 -17 -17 -17 -17 -17 -18 -18 -18 -18 -19 -19 -19 -19 -19 -20 -20 -21 -21 -21 -22 -22
-18 -18 -17 -17 -17 -18 -17 -17 -17 -18 -18 -19 -19 -19 -19 -19 -20 -20 -20 -20 -20 -21 -21 -22 -22 -23 -23
-18 -18 -18 -18 -18 -18 -18 -18 -19 -19 -19 -19 -19 -20 -20 -20 -20 -20 -21 -21 -21 -22 -22 -22 -23 -24 -24
-18 -18 -18 -18 -18 -19 -19 -19 -20 -20 -20 -20 -20 -20 -20 -20 -21 -21 -21 -22 -22 -23 -23 -24 -24 -24 -25
-19 -19 -19 -19 -19 -20 -20 -20 -20 -20 -20 -20 -20 -20 -21 -21 -22 -23 -23 -23 -24 -24 -24 -25 -25 -25 -25
-20 -20 -20 -20 -20 -20 -20 -20 -20 -20 -20 -21 -21 -21 -21 -22 -23 -23 -24 -25 -25 -25 -25 -25 -26 -26 -26
-20 -20 -20 -20 -20 -20 -21 -21 -21 -21 -21 -21 -21 -21 -22 -22 -23 -24 -25 -26 -25 -26 -26 -26 -27 -27 -27
-20 -21 -21 -21 -21 -21 -21 -21 -22 -22 -22 -22 -22 -22 -23 -23 -24 -25 -26 -26 -26 -26 -26 -27 -27 -28 -28
-21 -21 -21 -21 -21 -21 -22 -22 -22 -22 -22 -22 -23 -23 -23 -24 -25 -26 -26 -26 -26 -27 -27 -28 -28 -28 -28

GFSFLT2_500_temp_372.txt.gz
Temp
-14 -14 -14 -14 -14 -14 -14 -14 -14 -14 -14 -14 -14 -14 -14 -14 -14 -14 -15 -15 -15 -16 -16 -16 -16 -16 -17
-14 -14 -14 -14 -14 -15 -14 -14 -14 -14 -14 -14 -14 -15 -15 -15 -14 -15 -15 -15 -15 -16 -16 -16 -16 -17 -17
-15 -15 -14 -15 -15 -15 -15 -15 -15 -14 -15 -15 -15 -15 -15 -15 -15 -15 -15 -16 -16 -16 -16 -17 -17 -17 -18
-15 -14 -15 -15 -15 -15 -15 -15 -15 -15 -15 -14 -15 -15 -15 -15 -16 -16 -16 -16 -16 -16 -17 -17 -18 -18 -18
-15 -15 -15 -15 -16 -16 -15 -15 -15 -15 -15 -15 -15 -15 -15 -15 -16 -16 -16 -16 -17 -17 -18 -18 -18 -19 -18
-15 -16 -16 -15 -16 -16 -16 -15 -15 -16 -15 -15 -15 -16 -16 -16 -16 -17 -17 -18 -18 -18 -18 -19 -19 -19 -19
-16 -16 -16 -16 -16 -16 -16 -15 -15 -15 -16 -16 -16 -17 -17 -17 -17 -17 -17 -18 -18 -18 -18 -19 -19 -19 -19
-15 -15 -15 -15 -16 -16 -16 -16 -16 -16 -17 -17 -17 -17 -17 -17 -17 -18 -18 -18 -19 -19 -19 -19 -20 -20 -20
-16 -16 -16 -16 -16 -16 -17 -18 -17 -18 -18 -17 -17 -18 -18 -18 -18 -18 -19 -19 -19 -19 -20 -20 -20 -20 -21
-17 -17 -17 -17 -17 -18 -18 -18 -18 -18 -18 -17 -17 -18 -18 -18 -19 -19 -19 -20 -20 -20 -20 -20 -21 -21 -22
-17 -17 -17 -18 -18 -18 -18 -18 -18 -18 -18 -18 -18 -19 -19 -19 -20 -20 -20 -20 -20 -20 -21 -21 -21 -21 -22
-18 -18 -18 -18 -18 -18 -18 -18 -19 -19 -19 -19 -19 -19 -19 -19 -20 -20 -20 -20 -21 -21 -21 -21 -22 -22 -23
-18 -18 -18 -19 -18 -18 -19 -19 -19 -19 -19 -19 -19 -19 -20 -20 -20 -21 -21 -21 -21 -21 -21 -22 -23 -23 -24
-18 -19 -19 -19 -19 -19 -20 -20 -20 -20 -20 -20 -20 -20 -20 -21 -21 -21 -21 -21 -22 -22 -22 -23 -24 -25 -25
-19 -19 -19 -19 -20 -20 -20 -20 -20 -20 -20 -20 -20 -21 -21 -21 -22 -22 -22 -22 -22 -23 -23 -24 -26 -26 -26
-19 -19 -19 -20 -20 -20 -20 -20 -20 -20 -20 -20 -21 -22 -22 -22 -22 -22 -23 -23 -23 -24 -25 -25 -26 -27 -27
-20 -19 -20 -20 -20 -20 -20 -20 -21 -21 -21 -21 -22 -22 -22 -22 -23 -23 -24 -24 -25 -26 -26 -26 -27 -27 -28